Regional Weather Roundup
Issued by NWS Green Bay, WI

Home | Current Version | Previous Version | Graphics & Text | Print | Product List | Glossary Off
Versions: 1 2 3 4 5 6 7 8 9 10 11 12 13 14 15 16 17 18 19 20 21 22 23 24 25 26 27 28 29 30 31 32 33 34 35 36 37 38 39 40 41 42 43 44 45 46 47 48 49 50

000
ASUS43 KGRB 162310
RWRGRB

NORTH-CENTRAL AND NORTHEAST WISCONSIN REGIONAL WEATHER ROUNDUP
NATIONAL WEATHER SERVICE GREEN BAY WI
600 PM CDT TUE SEP 16 2014

WIZ005-009-010>012-018-019-170000-
NORTH CENTRAL WISCONSIN

CITY           SKY/WX    TMP DP  RH WIND       PRES   REMARKS
IRONWOOD       MOSUNNY   64  45  48 W9        29.98R
MANITOWISH WTR MOSUNNY   62  42  47 SW9       30.02S
ARBOR VITAE    MOSUNNY   63  41  43 W7        30.03S
EAGLE RIVER    SUNNY     62  37  39 W8        30.02S
LAND O LAKES   CLOUDY    64  40  42 W6        30.02S
RHINELANDER    SUNNY     62  42  47 W8        30.04F
PHILLIPS       SUNNY     62  42  48 W8        30.03F
ANTIGO         SUNNY     60  43  52 W9G16     30.05F
TOMAHAWK       SUNNY     62  41  47 CALM      30.05S
MERRILL        PTSUNNY   62  43  49 W9        30.05F
$$

WIZ013-073-170000-
NORTHEAST WISCONSIN

CITY           SKY/WX    TMP DP  RH WIND       PRES   REMARKS
IRON MOUNTAIN  CLEAR     65  40  39 W9        29.99S
MARINETTE      CLEAR     64  45  48 W6        30.01S
OCONTO         CLEAR     64  46  51 W7        30.03F
$$

WIZ017-030-035>037-045-170000-
CENTRAL WISCONSIN

CITY           SKY/WX    TMP DP  RH WIND       PRES   REMARKS
MEDFORD        SUNNY     61  42  49 W3        30.06F
WAUSAU         SUNNY     63  43  48 W8        30.05F
MOSINEE        SUNNY     61  45  55 SW8       30.07F
MARSHFIELD     SUNNY     62  43  49 W7        30.07S
WISC RAPIDS    SUNNY     63  42  46 W5        30.09S
STEVENS POINT  SUNNY     61  41  47 SW6       30.07F
WAUPACA        SUNNY     65  43  44 W8        30.07F
SHAWANO        SUNNY     65  42  43 W7        30.06S
CLINTONVILLE   SUNNY     63  41  45 W8        30.06S
$$

WIZ038-039-048-051-170000-
FOX VALLEY

CITY           SKY/WX    TMP DP  RH WIND       PRES   REMARKS
NWS GREEN BAY  SUNNY     63  46  54 W7        30.06F
APPLETON       MOSUNNY   63  43  48 SW7       30.08F
OSHKOSH        SUNNY     62  44  51 SW6       30.07F
FOND DU LAC    SUNNY     62  41  46 W5        30.09S
$$

WIZ022-050-052-170000-
EAST CENTRAL WISCONSIN

CITY           SKY/WX    TMP DP  RH WIND       PRES   REMARKS
STURGEON BAY   CLEAR     63  45  51 SW12      30.04F
MANITOWOC      CLEAR     62  43  49 W8        30.08S
SHEBOYGAN      CLEAR     62  41  46 W8        30.09S
$$

LMZ563-521-522-541>543-170000-
LAKESHORE

STATION/POSITION TIME  TEMP    WIND        PRES    VSBY  WAVE
                       AIR SEA DIR/SP/G                  HT/PER
                 (UTC) (F)     (DEG/KT/KT) (MB)    (MI)  (FT/S)
SHEBOYGAN LKSHOR 2300   57 50  180/ 11/ 12 1019.1S
KEWAUNEE LKSHORE 2300   63     240/  5/  9 1016.8S
NORTHPORT PIER   2300   65     210/  4/ 12 1015.9F
N MID LAKE BUOY  2300   58 58  210/ 19/ 23 1016.1F         3/ 4
S GREEN BAY BUOY 2300   62     VRB 10/ 12  1018.0F
CHAMBERS ISLAND  2300   63     200/  5/  8 1016.6S
MENOMINEE LKSHOR 2300   65     230/  7/ 12 1016.9F
$$


USA.gov is the U.S. government's official web portal to all federal, state and local government web resources and services.